Orbital elements:
1997 SE5 = 1990 WA16
Id. DANEOPS, S. Nakano, M. E. Sansaturio
Epoch 1999 Aug. 10.0 TT = JDT 2451400.5                 Gnadig
M  93.90303              (2000.0)            P               Q
n   0.13709618     Peri.   56.45918     +0.96282098     +0.26664259
a   3.7249388      Node   288.04379     -0.26049554     +0.87394739
e   0.6672643      Incl.    2.61195     -0.07153911     +0.40634676
P   7.19           H   15.0           G   0.15           U   0
Residuals in seconds of arc
820420 413  1.5+  0.3+    971007 118  0.0   0.5-    971029 670  0.4-  0.1-
820420 413  0.7-  0.2-    971007 118  0.3-  0.5-    971029 402  0.4-  0.1+
901016 675  1.9-  0.9+    971010 700  0.2-  0.2+    971029 402  0.4-  0.0
901016 675  0.3-  0.1+    971010 700  0.3+  0.1-    971029 402  0.3-  0.0
901120 095  0.1-  0.4+    971010 700  0.2-  0.1-    971030 557  0.2+  0.1+
901120 095  1.7+  0.5+    971010 700  0.5-  0.1-    971030 557  0.1+  0.2+
970628 704  1.2+  0.7+    971010 712  0.0   1.1+    971030 557  0.2+  0.0
970628 704  0.8+  0.7+    971010 712  0.5+  0.7+    971030 557  0.3+  0.1+
970628 704  0.8-  0.6+    971010 712 (2.2-  0.2+)   971030 557  0.3+  0.2+
970628 704  0.0   0.1+    971010 712  0.3+  0.4+    971031 557  0.5+  0.2-
970628 704  0.8-  0.3+    971012 670  0.3-  1.3-    971031 557  0.7+  0.1-
970628 704  0.4-  0.0     971012 670  0.8-  0.6-    971031 138  0.5+  0.1+
970629 704 (1.8-  3.3-)   971012 670  0.1-  0.6-    971031 618  0.4-  0.4+
970629 704  0.7-  0.1+    971013 118  0.5-  0.9-    971031 557  0.5+  0.0
970629 704 (1.4-  2.5+)   971013 118  0.4-  0.9-    971031 618  0.5-  0.2+
970629 704  0.2-  0.5+    971015 712  1.4+  0.2-    971031 138  1.0+  0.2+
970629 704  1.2-  1.5+    971015 712  1.9+  0.4-    971031 618  0.5+  1.2+
970702 704  1.0-  0.1-    971015 712  0.2+  0.8-    971031 138  1.2+  0.7+
970702 704  1.0-  0.2+    971015 712  1.4+  0.2-    971031 618  1.0-  0.3-
970702 704  0.5-  0.1+    971015 712  0.1-  0.5-    971031 138  0.6-  0.4-
970702 704  0.5-  0.2-    971015 712  1.6+  0.4-    971031 618  0.8+  0.6-
970702 704  1.1-  0.4+    971015 712  0.3+  1.5-    971031 557  0.6+  0.1-
970928 566  0.0   0.5+    971016 670  0.8-  0.3-    971031 557  0.5+  0.1-
970928 566  0.2-  0.6+    971016 658  1.4-  0.8-    971101 046  1.0+  0.3+
970928 566  0.5-  0.5+    971016 658  1.5-  1.3-    971101 046  1.0+  0.3+
970928 046  0.1+  0.4+    971016 658 (0.4-  2.2-)   971101 046  1.0+  0.5+
970928 046  0.1+  0.4+    971016 670  0.3-  0.1-    971101 557  0.8+  0.1+
970928 046  0.1+  0.4+    971016 670  0.7-  0.1-    971101 138  0.6-  1.3+
970928 046  0.1+  0.4+    971017 046  0.4-  0.6-    971101 957  0.2-  0.4+
970928 046  0.0   0.4+    971017 046  0.6-  0.7-    971101 557  1.0+  0.2+
970928 046  0.1+  0.5+    971017 046  0.6-  0.7-    971101 957  0.6+  3.0+
970929 670  0.4+  0.2-    971017 046  0.6-  0.6-    971101 138  0.5+  2.3+
970929 670  0.3+  0.3-    971018 861  0.6-  0.9-    971101 957  0.2-  0.8+
970929 670  0.3+  0.1-    971018 861  0.1+  0.7-    971101 957  1.2+  0.2+
970929 670  0.5+  0.2-    971018 861  0.8-  0.9-    971101 557  1.0+  0.2+
970929 670  0.3+  0.1-    971018 658  1.2-  0.2-    971101 138  0.9+  0.8+
970929 670  0.4+  0.2-    971018 658  0.6-  1.1-    971101 957  1.5+  0.5+
970929 566  0.0   0.4-    971018 658  1.5-  0.6-    971101 557  1.0+  0.2+
970929 566  0.2+  0.3-    971018 108  0.4+  0.4-    971102 670  0.6+  0.3+
970929 566  0.3-  0.3-    971018 108  0.2-  0.8-    971102 670  0.7+  0.1+
970929 900  0.1-  0.5+    971019 712  1.4+  0.0     971102 670  0.8+  0.2-
970929 900  0.1-  0.2+    971019 712  1.5+  0.0     971102 587  0.5+  0.6+
970929 360  0.3-  0.4+    971019 712  1.4+  0.1+    971102 587  0.6+  0.7+
970929 360  0.4-  0.4+    971019 712  1.3+  0.0     971103 557  0.3+  0.2+
970929 360  0.3-  0.3+    971020 355  0.5-  0.2-    971103 557  0.1+  0.1+
970929 046  0.1+  0.3+    971020 355  0.1-  0.2-    971103 557  0.2+  0.1+
970929 046  0.2+  0.1+    971020 355  0.1-  0.3-    971103 557  0.2+  0.2+
970929 046  0.4+  0.1+    971020 118  0.1-  0.3-    971104 402  0.1-  0.3+
970929 557  0.5+  0.1+    971020 118  0.1-  0.2-    971104 402  0.1-  0.4+
970929 557  0.5+  0.1+    971020 118  0.2-  0.3-    971104 402  0.2-  0.2+
970929 557  0.3+  0.2+    971021 658  1.1-  0.2-    971105 381  0.5-  0.1+
970929 557  0.3+  0.1+    971021 658  0.9-  0.3-    971105 381  0.5-  0.1+
970929 587  0.5+  0.1+    971021 658  1.3-  0.2-    971105 360  0.6-  0.2+
970929 587  0.4+  0.3+    971021 360  0.6-  0.3-    971105 360  0.4-  0.3+
970929 587  0.6+  0.1+    971021 360  0.5-  0.3-    971105 360  0.5-  0.3+
970929 958  0.2+  0.1+    971021 360  0.5-  0.2-    971106 422  0.7-  0.3-
970929 958  0.3+  0.2+    971021 557  0.4-  0.3-    971106 422  0.9-  0.3-
970929 958  0.1+  0.1+    971021 557  0.4-  0.2-    971106 422  0.8-  0.5-
970929 958  0.1+  0.3+    971021 557  0.6-  0.3-    971109 658  1.6+  1.4-
970929 958  0.2+  0.5+    971021 557  0.5-  0.2-    971109 658  1.0-  0.3-
970929 619  0.1+  0.5-    971021 557  0.4-  0.3-    971109 658  0.5-  1.5-
970929 958  0.1+  0.4+    971022 422  0.8-  0.4-    971111 426  0.1+  0.5-
970929 958  0.1+  0.3+    971022 422  0.6-  0.4-    971111 426  0.1-  0.8-
970929 619  0.5-  0.6-    971022 422  0.7-  0.4-    971111 426  0.3+  0.5-
970929 476  1.9+  1.2-    971022 557  0.5-  0.2-    971111 426  0.5-  0.7-
970929 619  0.7-  0.4-    971022 046  0.5-  0.1-    971112 658  0.7-  0.1-
970929 476  0.7+  0.5-    971022 046  0.5-  0.2-    971112 658  0.3-  0.1-
970929 958  0.5+  0.8+    971022 046  0.6-  0.2-    971112 658  0.7-  0.1+
970929 958  0.6+  0.9+    971022 118  0.7-  0.1-    971114 104  0.3-  0.2-
970929 958  0.6+  0.7+    971022 557  0.7-  0.3-    971114 104  0.3-  0.2+
970929 958  0.6+  0.8+    971022 118  0.8-  0.2-    971114 104  0.2-  0.3+
970930 670  0.4+  0.0     971022 118  0.6-  0.0     971114 104  0.3-  0.9+
970930 426  0.3+  0.4-    971022 557  0.5-  0.2-    971119 402  0.1-  0.2+
970930 426  0.7+  0.1-    971022 557  0.5-  0.2-    971119 402  0.2+  0.3+
970930 426  0.1+  0.4-    971023 861  0.3-  0.7-    971119 402  0.1-  0.2+
970930 355  1.0+  0.4+    971023 861  0.2-  0.7-    971119 046  0.2+  0.2+
970930 355  0.6+  0.2+    971023 402  0.6-  0.4-    971119 046  0.3-  0.1+
970930 355  0.6+  0.3-    971023 402  0.4-  0.4-    971119 046  0.2-  0.6+
970930 355  0.8+  0.4+    971024 658  1.0-  0.3-    971119 046  0.4-  0.1-
970930 958  1.4-  0.7-    971024 658  1.1-  0.2-    971120 683  0.2+  0.6-
970930 958  1.3-  0.5-    971024 658  0.4-  0.3-    971120 683  0.2-  0.3-
970930 958  1.5-  1.0-    971024 046  0.1-  0.0     971120 683  0.8-  0.2-
970930 958  1.8-  0.8-    971024 046  0.1-  0.0     971121 046  0.1-  0.7-
971001 670  0.5+  0.2-    971024 046  0.1+  0.0     971121 046  0.0   0.7-
971001 670  0.8+  0.1+    971024 046  0.0   0.0     971121 046  0.2-  0.8-
971001 670  0.5+  0.1-    971024 966  0.2-  0.2+    971121 046  0.1-  0.7-
971001 402  0.1-  0.3-    971024 966  0.1+  0.2+    971123 670  0.4+  0.2-
971001 402  1.0+  0.1+    971024 957  0.4+  1.3+    971123 670  0.3+  0.3-
971001 402  0.8+  0.0     971024 957  1.5+  0.2+    971123 670  0.0   0.0
971001 897  1.1+  0.1-    971024 957  0.8+  1.9+    971129 566  0.6-  0.6+
971001 897  1.6+  0.2+    971025 700  0.2-  0.3+    971129 566  0.5-  0.3+
971001 897  1.3+  0.1-    971025 700  0.2-  0.5+    971129 566  0.9-  0.4+
971001 476 (2.1+  0.7+)   971025 700  0.2-  0.8+    971130 360  0.2+  0.3+
971001 476  0.0   0.3-    971025 670  0.0   0.4+    971130 360  0.1+  0.4+
971001 619  1.7+  0.3+    971025 670  0.2+  0.4+    971130 360  0.1+  0.3+
971001 619  1.6+  0.2+    971025 670  0.0   0.5+    971201 587  0.2+  0.1-
971001 619  1.6+  0.3+    971025 422  0.2+  0.3+    971201 587  0.0   0.0
971003 402  0.4+  0.1-    971025 422  0.0   0.3+    971202 355  0.4+  0.0
971003 402  0.3+  0.0     971025 422  0.1+  0.3+    971202 355  0.5+  0.3+
971003 402  0.3+  0.0     971025 124  0.1-  0.5+    971202 355  0.3+  0.2+
971003 108  0.6+  0.2-    971025 957  0.1+  0.6+    971206 046  0.1-  0.2+
971003 108  0.9+  0.7+    971025 124  0.3+  0.6+    971206 046  0.2-  0.2+
971003 108  0.9+  0.2-    971025 124 (2.4-  1.0+)   971206 046  0.1-  0.0
971003 108 (2.0+  1.0+)   971025 957  0.3+  0.0     971218 046  0.8+  0.3+
971003 046  0.1-  0.1+    971025 124  0.2+  0.3+    971218 046  1.4+  0.3+
971003 046  0.1-  0.2+    971025 124  0.2-  0.3+    971218 046  0.9+  0.2+
971003 046  0.0   0.2+    971025 957  0.3-  0.1+    971221 360  0.4+  0.8+
971003 046  0.0   0.0     971025 618  0.5-  0.8-    971221 360  0.7+  0.8+
971003 861  0.5-  0.2-    971025 618  0.8+  0.2-    971221 360  1.1+  0.8+
971004 861  0.4-  0.1-    971025 618  0.2-  0.7+    971228 566  0.8-  0.3-
971004 861  0.8-  0.0     971025 618  0.3+  0.2+    971228 566  0.2-  0.5-
971004 046  0.4-  0.1+    971026 700  0.0   0.1-    971228 566  0.5-  0.4-
971004 046  0.0   0.2+    971026 700  0.1+  0.1-    971230 046  0.0   0.2+
971004 046  0.2-  0.2+    971026 700  0.4-  0.1+    971230 046  0.7+  0.0
971004 861  0.5-  0.5-    971026 566  0.0   0.0     971230 046  0.4+  0.1+
971004 861  0.2-  0.7-    971026 566  0.7-  0.0     980102 711  0.8-  0.0
971005 670  0.4+  0.0     971026 566  0.9-  0.1-    980102 711  0.5+  0.0
971005 710  1.0+  0.1+    971026 104  0.2-  0.5+    980103 711  0.2+  0.3+
971005 670  0.2-  0.0     971026 104  0.1-  0.5+    980103 711  0.4-  0.2+
971005 670  0.1+  0.2+    971026 104  0.1+  0.2-    980109 658  0.4-  0.5+
971005 700  0.3+  0.3+    971026 104  0.1+  0.3-    980109 658  0.3-  0.4+
971005 700  0.4+  0.3+    971026 124  0.6-  0.4+    980109 658  0.7-  0.4+
971005 700  0.2+  0.4+    971026 124  0.1-  0.1+    980110 046  0.1-  0.4+
971005 710  0.1+  0.1+    971026 124  0.8-  0.6-    980110 046  0.4-  0.1+
971005 700  0.4+  0.3+    971026 124  0.2+  0.6-    980110 046  0.0   0.2+
971005 046  0.1+  0.1+    971026 618  0.3-  0.0     980124 566  0.2-  0.6+
971005 046  0.1+  0.1+    971026 618  0.5-  0.1+    980124 566  0.1-  0.2+
971005 046  0.1-  0.1+    971026 618  0.2+  0.0     980124 566  0.1-  0.6+
971005 540  0.0   0.2+    971026 618  0.2+  0.0     980129 046  1.1+  0.9+
971005 540  0.1-  0.1+    971026 618  0.3-  0.7+    980129 046  0.5+  1.4+
971005 540  0.1+  0.3+    971027 046  0.6-  0.1-    980129 046  1.0+  0.9+
971006 710  0.0   0.3+    971027 046  0.2-  0.0     980208 046  0.4-  0.2-
971006 710  0.0   0.2+    971027 046  0.5-  0.1-    980208 046  0.2-  0.3+
971006 360  0.2-  0.2+    971028 861  0.2-  0.1+    980208 046  0.1+  0.3+
971006 360  0.2-  0.2+    971028 861  0.5-  0.0     980223 557  0.1+  0.5+
971006 360  0.3-  0.2+    971028 861  0.5-  0.0     980223 557  1.2+  0.1+
971006 046  0.2-  0.1-    971028 352  0.5-  0.4-    980223 557  0.6+  1.2-
971006 046  0.1-  0.1-    971028 352  0.6-  0.4-    980223 557  1.3+  0.9+
971006 046  0.1-  0.1-    971028 352  0.6-  0.3-    980308 696  1.1+  1.0-
971006 118  0.3-  0.3-    971028 557  0.4-  0.0     980308 696  1.5+  0.6-
971006 118  0.2-  0.1-    971028 557  0.4-  0.0     980308 696  0.6+  0.9-
971006 118  0.1-  0.1-    971028 557  0.4-  0.1-    980319 658  1.1-  0.7-
971007 426  0.1+  0.3-    971028 557  0.4-  0.0     980319 658  1.6-  0.2-
971007 426  0.1-  0.2-    971029 670  0.4-  0.2-
971007 118  0.2-  0.4-    971029 670  0.4-  0.1+

